Flag for U.S.A. Weather past 2 weeks in Augusta, Maine, U.S.A.

Now
62 °F

Clear.


Feels Like: 62 °F
Forecast: 56 / 78 °F
Wind: No wind

Location: Augusta State Airport

Current Time: Aug 29, 2015 at 12:11:39 AM

Latest Report: Aug 28, 2015 at 10:53 PM


Visibility: 10 mi

Pressure: 30.14 "Hg

Humidity: 86%

Dew point: 58 °F

Location of AugustaLocation

Historic Weather in Augusta — Graph

°F

Augusta temperature yesterday

Maximum temperature yesterday: 75 °F (at 2:53 PM)
Minimum temperature yesterday: 57 °F (at 5:53 AM)
Average temperature yesterday: 66 °F

Past Weeks' High & Low Weather Summary

 TemperatureHumidityPressure
High88 °F (Aug 18, 12:53 PM)100% (Aug 14, 4:53 AM)30.17 "Hg (Aug 14, 4:53 AM)
Low57 °F (Aug 14, 5:53 AM)40% (Aug 16, 3:53 PM)29.86 "Hg (Aug 26, 4:01 PM)
Average71 °F82%30.03 "Hg
* Reported Aug 13 10:53 PM — Aug 28 10:53 PM, Augusta, Weather by CustomWeather, © 2015

Note: Actual official high and low records may vary slightly from our data, if they occured in-between our weather recording intervals... More about our weather records

Advertising

Augusta weather history for previous 24 hours

 ConditionsComfort  
Time TempWeatherWind HumidityBarometerVisibility
10:53 PM
Fri, Aug 28
62 °FClear.No wind86%30.14 "Hg10 mi
9:53 PM62 °FClear.6 mph86%30.14 "Hg10 mi
8:53 PM64 °FClear.5 mph84%30.12 "Hg10 mi
7:53 PM66 °FSunny.6 mph78%30.11 "Hg10 mi
6:53 PM72 °FSunny.No wind55%30.09 "Hg10 mi
5:53 PM75 °FSunny.5 mph47%30.09 "Hg10 mi
4:53 PM75 °FSunny.7 mph47%30.09 "Hg10 mi
3:53 PM75 °FSunny.8 mph48%30.09 "Hg10 mi
2:53 PM75 °FScattered clouds.7 mph48%30.10 "Hg10 mi
1:53 PM74 °FScattered clouds.6 mph50%30.11 "Hg10 mi
12:53 PM73 °FPassing clouds.7 mph51%30.12 "Hg10 mi
11:53 AM70 °FPassing clouds.No wind55%30.13 "Hg10 mi
10:53 AM69 °FPassing clouds.8 mph57%30.13 "Hg10 mi
9:53 AM69 °FPassing clouds.9 mph61%30.13 "Hg10 mi
8:53 AM66 °FSunny.8 mph70%30.12 "Hg10 mi
7:53 AM63 °FSunny.6 mph78%30.12 "Hg10 mi
6:53 AM60 °FClear.No wind86%30.10 "Hg10 mi
5:53 AM57 °FClear.3 mph90%30.08 "Hg10 mi
4:53 AM59 °FClear.6 mph84%30.07 "Hg10 mi
3:53 AM60 °FClear.3 mph80%30.06 "Hg10 mi
2:53 AM59 °FClear.5 mph84%30.05 "Hg10 mi
1:53 AM61 °FClear.6 mph78%30.05 "Hg10 mi
12:53 AM62 °FClear.7 mph75%30.05 "Hg10 mi
Weather by CustomWeather, © 2015

See weather overviewHow to use our weather pages